DECAYED
Showing default

DRAGON CRS-31, 61791 (Decayed)

Orbit data source: Space-Track

DRAGON CRS-31, 61791 was a payload satellite owned by SpaceX (US) in LEO that was launched on Tue, 05 Nov 2024 UTC via an FALCON 9 launch vehicle from the Air Force Eastern Test Range (AFETR). Payload-class satellites include a variety of spacecraft equipped with specific instruments for various scientific and technological missions. These include communications satellites like Starlink; space stations such as the ISS; scientific satellites like the Hubble; Earth observation satellites from companies like Planet Labs, Umbra, and HawkEye 360; GPS; miniature CubeSats for education and research; and military/defense satellites.

Loading next visibility...
Identifier
61791, 2024-200A
Orbit
Decayed
Last TLE update
7 months ago
Origin
Manufacturer
SpaceX
Mission
Decayed Commercial Spaceship
Bus & Motor
DRAGON CM, Unknown motor
Mass
~15,600 kg wet, ~9,000 kg dry
Launch date (UTC)
2024-11-05 (8 months ago)
Launch vehicle
FALCON 9
Launch site
Air Force Eastern Test Range (AFETR)
Object type
Payload
Rocket body
Debris
Shape & HBR
Trunc Cone + Cyl + 2 Fin, 16.5 m
Radar Cross Section
36.564 m², Large (>1 m²)

Expand to show TLE details & history

TLE from 7 months ago
0 DRAGON CRS-31
1 61791U 24200A   24353.53506710  .00013558  00000-0  23891-3 0  9994
2 61791  51.6382 122.0276 0007778 354.9631   5.1279 15.50711352  6281
Epoch: 2024-12-18T12:50Z
TLE epoch observation values (Epoch: 2024-12-18T12:50:29.797Z)
Latitude
Longitude
-158.22444°
Altitude
410.127 km
Speed
7.669 km/s
True Right ascension
08h 08m 06s
True Declination
0° 00' 00"
Sunlit
Object was in full shadow at epoch
Visualization orbit readout
Visualization observer readout
Orbital elements
Apogee altitude
420.44 km
Perigee altitude
409.872 km
Semi-major axis
6,793.293 km
Eccentricity
0.00078
Inclination
51.6382°
RAAN
122.0276°
Arg. of periapsis
354.9631°
True anomaly
Unknown
Mean anomaly
5.1279°
Eccentric anomaly
Unknown
Mean motion
3.87635 °/min
Orbital period
92.87 mins
BSTAR
0.00023891
Loading maneuver chart data...
Loading SW <> Apogee altitude chart data...
Loading historical data...
Loading historical data...
Loading historical data...
Loading historical data...
Loading historical data...
Loading historical data...
Loading historical data...
Other satellites on launch #200 in the year 2024 (2024-11-05 UTC)

DRAGON CRS-31 Visibility forecast

Observer location: undefined°, undefined°

Span
Click to sort rows by Start time (UTC) header in descending order
Start Az.
Max El. time (UTC)
Max El. Az.
Max El.
End time (UTC)
End Az.
5 mins2025-07-11 09:39:00.964Z286.09° WNW2025-07-11 09:41:00.964Z242.824° WSW27.469°2025-07-11 09:44:00.964Z161.187° S
4 mins2025-07-12 02:17:00.964Z235.81° WSW2025-07-12 02:19:00.964Z39.684° NE42.128°2025-07-12 02:21:00.964Z50.909° ENE
|